Location: Newark
(37.8333°N, 119.5000°W)
Time: 05:23:22
(UTC+00:00)

Tiros 1 despin weight - Pass Details

Date: 23 August 2019
Orbit: 594 x 642 km, 48.2° (Epoch: 19 September)

Event Time Altitude Azimuth Distance (km) Brightness Sun altitude
Rises 06:56:09 0° 236° (WSW) 2,820 - -38.4°
Reaches altitude 10° 06:58:25 10° 237° (WSW) 1,925 - -38.5°
Maximum altitude 07:02:50 85° 324° (NW) 606 - -38.8°
Drops below altitude 10° 07:07:20 10° 56° (NE) 1,955 - -39.1°
Sets 07:09:39 0° 57° (ENE) 2,869 - -39.2°
